PDT,Max TemperatureF,Mean TemperatureF,Min TemperatureF,Max Dew PointF,MeanDew PointF,Min DewpointF,Max Humidity, Mean Humidity, Min Humidity, Max Sea Level PressureIn, Mean Sea Level PressureIn, Min Sea Level PressureIn, Max VisibilityMiles, Mean VisibilityMiles, Min VisibilityMiles, Max Wind SpeedMPH, Mean Wind SpeedMPH, Max Gust SpeedMPH,PrecipitationIn, CloudCover, Events, WindDirDegrees
2013-7-1,93,80,66,61,59,55,83,51,30,29.89,29.87,29.85,20,17,10,10,3,,0.00,5,,216
2013-7-2,80,74,68,64,62,61,88,61,51,30.01,29.98,29.93,15,13,9,9,4,,0.00,5,,243
2013-7-3,89,80,68,63,61,59,83,57,36,29.94,29.86,29.82,20,16,12,8,5,,0.00,5,,285
2013-7-4,89,76,64,64,60,57,100,56,33,29.83,29.82,29.81,20,16,3,8,3,,0.00,4,,230
2013-7-5,82,76,66,59,59,57,78,61,42,29.85,29.82,29.80,20,16,12,12,7,,0.00,2,,227
2013-7-6,84,80,73,61,60,59,61,54,45,29.84,29.82,29.78,20,18,10,9,3,,0.00,3,,244
2013-7-7,87,79,71,61,60,59,69,53,38,29.85,29.82,29.79,20,20,20,14,5,,0.00,1,,285
2013-7-8,93,78,62,63,60,54,100,52,28,29.93,29.90,29.87,20,15,3,12,4,,0.00,2,,275
2013-7-9,91,78,66,64,63,61,94,66,36,30.01,29.98,29.96,20,18,10,12,2,,0.00,5,,270
2013-7-10,78,78,75,61,60,59,61,56,54,30.00,29.95,29.92,20,16,12,6,4,,0.00,8,,240
2013-7-11,78,73,68,64,64,63,83,72,57,30.00,29.96,29.90,15,9,5,7,1,,0.00,8,,240
2013-7-12,87,76,64,63,63,63,94,57,43,29.96,29.92,29.89,20,17,7,9,5,,0.00,2,,248
2013-7-13,87,80,73,63,60,55,69,49,35,29.97,29.93,29.88,20,17,10,12,4,,0.00,1,,273
2013-7-14,89,78,66,61,59,57,83,48,35,29.94,29.91,29.86,,,,12,3,,0.00,3,,230
2013-7-15,89,76,64,61,58,55,88,48,31,29.89,29.87,29.84,20,17,7,12,3,,0.00,0,,261
2013-7-16,87,74,62,64,59,54,100,57,31,29.94,29.93,29.92,10,8,7,15,7,,0.00,2,,285
2013-7-17,91,74,57,55,52,46,94,50,21,30.03,30.01,29.98,12,12,12,13,2,,0.00,2,,280
2013-7-18,89,76,62,61,56,54,94,49,31,30.01,29.94,29.89,20,15,5,12,9,,0.00,2,,268
2013-7-19,78,70,62,61,59,57,94,67,47,29.93,29.90,29.87,20,13,6,9,3,,0.00,5,,216
2013-7-20,75,70,64,59,57,57,78,63,53,29.91,29.86,29.82,12,10,6,8,5,,0.00,7,,230
2013-7-21,75,70,64,63,60,59,83,69,57,29.92,29.90,29.84,12,10,7,7,3,,0.00,6,,258
2013-7-22,84,74,64,63,60,59,94,61,42,29.99,29.98,29.96,15,15,15,10,2,,0.00,2,,240
2013-7-23,84,74,64,63,62,61,94,68,48,30.04,30.01,29.97,10,8,5,12,3,,0.00,3,,280
2013-7-24,82,76,71,61,61,61,69,56,48,29.97,29.95,29.92,20,20,20,12,8,,0.00,1,,280
2013-7-25,84,78,71,61,59,57,65,52,40,30.00,29.98,29.95,20,19,15,12,8,,0.00,3,,264
2013-7-26,80,73,66,63,61,61,88,64,51,30.09,30.06,30.01,15,13,5,12,2,,0.00,6,,255
2013-7-27,84,78,66,63,60,57,73,58,45,30.02,29.96,29.92,20,15,8,12,5,,0.00,2,,270
2013-7-28,82,76,64,57,56,55,73,50,39,29.95,29.92,29.90,15,12,7,9,4,,0.00,0,,224
2013-7-29,82,72,62,55,55,54,77,58,37,30.02,30.00,29.98,20,14,7,10,2,,0.00,4,,225
2013-7-30,82,70,62,57,56,55,77,63,42,30.13,30.12,30.09,20,12,7,12,1,,0.00,3,,260
2013-7-31,78,72,66,57,55,54,68,58,47,30.12,30.06,30.02,20,16,10,14,6,,0.00,5,,280